Location: Newark
(58.9986°N, 38.5006°E)
Time: 08:36:53
(UTC+00:00)

N. Korean satellite - Pass Details

Date: 11 December 2019
Orbit: 454 x 507 km, 97.2° (Epoch: 28 January)

Event Time Altitude Azimuth Distance (km) Brightness Sun altitude
Rises 02:56:36 0° 19° (NNE) 2,573 10.4 -22.4°
Reaches altitude 10° 02:58:50 10° 29° (NNE) 1,677 9.5 -22.1°
Maximum altitude 03:02:08 34° 96° (E) 817 8.3 -21.7°
Drops below altitude 10° 03:05:22 10° 163° (SSE) 1,636 9.5 -21.3°
Sets 03:07:32 0° 173° (S) 2,499 10.4 -21.0°
